Regional Weather Roundup
Issued by NWS San Angelo, TX

Home | Current Version | Previous Version | Text Only | Print | Product List | Glossary On
Versions: 1 2 3 4 5 6 7 8 9 10 11 12 13 14 15 16 17 18 19 20 21 22 23 24 25 26 27 28 29 30 31 32 33 34 35 36 37 38 39 40 41 42 43 44 45 46 47 48 49 50
000
ASUS44 KSJT 030411
RWRSJT
WEST CENTRAL TEXAS REGIONAL WEATHER ROUNDUP
NATIONAL WEATHER SERVICE SAN ANGELO TX
1100 PM CDT MON MAY 02 2016

NOTE: "FAIR" INDICATES FEW OR NO CLOUDS BELOW 12,000 FEET WITH NO
SIGNIFICANT WEATHER AND/OR OBSTRUCTIONS TO VISIBILITY.

TXZ049-054-064>066-071>073-076>078-098-099-113-114-127-128-139-140-
154-155-168>170-030500
...LOCATIONS ACROSS WEST CENTRAL TEXAS...

CITY           SKY/WX    TMP DP  RH WIND       PRES   REMARKS
SAN ANGELO     CLEAR     53  46  77 SE6       30.14R
ABILENE        CLEAR     53  47  79 SE5       30.15R
DYESS AFB      CLEAR     53  48  81 S5        30.14R
JUNCTION       CLEAR     51  46  83 CALM      30.15R
SWEETWATER     CLEAR     55  41  58 SE6       30.17S
BROWNWOOD      CLEAR     52  50  93 CALM      30.14S
COLEMAN        CLEAR     52  48  87 CALM      30.15S
SONORA         CLEAR     54  48  82 CALM      30.19R
OZONA          FAIR      55  45  67 E5        30.17S
BRADY          NOT AVBL
$$

TEXAS PANHANDLE/OKLAHOMA PANHANDLE

CITY           SKY/WX    TMP DP  RH WIND       PRES   REMARKS
AMARILLO       CLEAR     47  38  71 SE7       30.15S
BORGER         CLEAR     54  38  54 S7        30.14R
CANADIAN       CLEAR     44  40  85 SW5       30.13S
DALHART        CLEAR     48  38  68 SE9       30.15R
DUMAS          CLEAR     46  39  75 S6        30.14S
GUYMON         NOT AVBL
HEREFORD       CLEAR     47  39  74 SE5       30.16S
PAMPA          CLEAR     48  42  80 SE7       30.16R
PERRYTON       CLEAR     48  40  74 S5        30.14R
$$

SOUTHERN PANHANDLE/SOUTH PLAINS/ROLLING PLAINS

CITY           SKY/WX    TMP DP  RH WIND       PRES   REMARKS
LUBBOCK        CLEAR     53  32  44 E8        30.14R
SNYDER           N/A     55  40  56 E6        30.15S
CHILDRESS      CLEAR     58  35  42 NE5       30.13R
SEMINOLE       CLEAR     55  33  44 CALM      30.16R
$$

PERMIAN BASIN

CITY           SKY/WX    TMP DP  RH WIND       PRES   REMARKS
MIDLAND        CLEAR     59  39  47 SE9       30.14R
ODESSA         CLEAR     60  36  40 E9        30.14R
WINK           CLEAR     58  35  42 E5        30.11R
$$

FAR WEST/SOUTHWEST MOUNTAINS/TRANS PECOS

CITY           SKY/WX    TMP DP  RH WIND       PRES   REMARKS
ALPINE         CLEAR     48  32  54 CALM      30.23R
DRYDEN           N/A     62  42  47 E6        30.10R
EL PASO        CLEAR     64  30  27 E6        30.10R
FORT STOCKTON  CLEAR     59  39  47 SE6       30.13R
GUADALUPE PASS CLEAR     50  32  50 NE25      30.19R
MARFA          CLEAR     48  34  58 N8        30.18R
PECOS          CLEAR     59  35  40 SE5       30.12R
$$

DALLAS/FORT WORTH METROPLEX

CITY           SKY/WX    TMP DP  RH WIND       PRES   REMARKS
DFW AIRPORT    CLEAR     56  46  69 NE3       30.12R
FTW MEACHAM    CLEAR     57  46  66 NE3       30.12S
DAL-EXECUTIVE  CLEAR     53  46  77 N3        30.12R
GRAND PRAIRIE  CLEAR     56  46  68 N3        30.14R
ADDISON        CLEAR     57  48  72 CALM      30.14S
MESQUITE       CLEAR     55  49  81 CALM      30.12S
LANCASTER      CLEAR     53  48  83 CALM      30.13S
$$

NORTH CENTRAL TEXAS

CITY           SKY/WX    TMP DP  RH WIND       PRES   REMARKS
SHRMAN/DENISON CLEAR     48  44  84 CALM      30.13S
GAINESVILLE    CLEAR     51  46  84 CALM      30.15S
BRIDGEPORT     CLEAR     50  50 100 CALM      30.15S
DENTON         CLEAR     50  48  93 CALM      30.13R
WAXAHACHIE     CLEAR     52  48  86 N5        30.14R
GRANBURY       CLEAR     54  49  83 CALM      30.15R
$$

WESTERN NORTH TEXAS

CITY           SKY/WX    TMP DP  RH WIND       PRES   REMARKS
WICHITA FALLS  CLEAR     53  46  77 E5        30.13R
VERNON         CLEAR     56  39  53 E6        30.14R
BRECKENRIDGE   CLEAR     55  47  73 SE7       30.13S
COMANCHE       CLEAR     56  49  80 CALM      30.15R
$$

CENTRAL AND SOUTH CENTRAL TEXAS

CITY           SKY/WX    TMP DP  RH WIND       PRES   REMARKS
AUSTIN/BERGSTM MOCLDY    58  52  80 N6        30.11R
WACO           CLEAR     56  51  84 N6        30.12R
HILLSBORO      CLEAR     52  49  90 N5        30.13R
TEMPLE         MOCLDY    53  51  93 NW6       30.12R
KILLEEN-GRAY   PTCLDY    54  51  89 NW5       30.12R
FORT HOOD      PTCLDY    55  50  85 NW2       30.10S
GEORGETOWN       N/A    N/A N/A N/A MISG        N/A
LAGO VISTA     FAIR      56  50  82 NW5       30.13R
SAN MARCOS     MOCLDY    57  52  82 N8        30.11S
NEW BRAUNFELS  MOCLDY    59  52  77 N8        30.09R
RANDOLPH AFB   MOCLDY    59  52  77 N8        30.09S
SAN ANTONIO    MOCLDY    59  51  75 N7        30.11R
STINSON        CLOUDY    63  49  60 N10       30.08S
PLEASANTON     NOT AVBL
LA GRANGE        N/A     62  54  76 N5        30.07R
GIDDINGS       MOCLDY    59  52  78 N5        30.12S
$$

EAST TEXAS

CITY           SKY/WX    TMP DP  RH WIND       PRES   REMARKS
PARIS          CLEAR     52  41  66 NW3       30.11R
CLARKSVILLE    NOT AVBL
TYLER          CLEAR     55  50  83 NW5       30.09R
LONGVIEW       CLEAR     57  52  83 NW8       30.07R
PALESTINE      MOCLDY    56  54  91 N3        30.10S
NACOGDOCHES    CLOUDY    59  54  82 N7        30.06S
$$

TEXAS HILL COUNTRY AND EDWARDS PLATEAU

CITY           SKY/WX    TMP DP  RH WIND       PRES   REMARKS
LLANO          MOCLDY    54  52  94 CALM      30.17S
HORSESHOE BAY  FAIR      52  51  95 CALM      30.13S
KERRVILLE      CLOUDY    54  50  87 CALM      30.14S
FREDERICKSBRG  CLEAR     51  49  91 CALM      30.14R
ROCKSPRINGS    CLEAR     54  46  76 CALM      30.17R
HONDO          MOCLDY    57  52  83 N3        30.14R
UVALDE         CLOUDY    57  54  89 CALM      30.13S
DEL RIO        CLEAR     61  52  72 E7        30.10S
$$

SOUTHEAST TEXAS

CITY           SKY/WX    TMP DP  RH WIND       PRES   REMARKS
COLLEGE STN    CLOUDY    60  54  80 N10       30.08S
CALDWELL       MOCLDY    57  54  88 NW7       30.12S
CROCKETT       PTCLDY    57  54  88 N3        30.11R
BRENHAM        PTCLDY    61  55  83 N6        30.09R
HUNTSVILLE     PTCLDY    60  55  83 VRB3      30.06S
CONROE         CLOUDY    62  55  77 N9        30.06R
HOUSTON BUSH   PTCLDY    62  57  83 N10       30.05R
HOUSTON HOBBY  MOCLDY    66  58  75 N15       30.03R
PERLAND        MOCLDY    68  59  73 N9        30.04R
WHARTON        CLEAR     62  57  85 N9        30.06S
$$

THE UPPER TEXAS COAST

CITY           SKY/WX    TMP DP  RH WIND       PRES   REMARKS
ORANGE         CLOUDY    67  63  86 N5        30.03R
PORT ARTHUR    CLOUDY    68  62  81 N12G22    30.00F
GALVESTON      CLOUDY    69  63  81 N18       30.02S
ANGLETON       MOCLDY    66  60  81 N8        30.03R
BAY CITY       CLOUDY    65  60  82 N7        30.04R
$$

TEXAS COASTAL BEND, RIO GRANDE PLAINS DEEP SOUTH TEXAS

CITY           SKY/WX    TMP DP  RH WIND       PRES   REMARKS
VICTORIA       CLOUDY    62  54  74 N9        30.06R
BEEVILLE       CLOUDY    64  55  72 N9        30.07S
ROCKPORT       CLOUDY    67  55  65 N13       30.05S
PORT ARANSAS   CLOUDY    67  58  73 N17       30.05R
PORT LAVACA    CLEAR     63  57  82 N9        30.06R
CORPUS CHRISTI CLOUDY    67  54  63 N12       30.06R
KINGSVILLE NAS CLOUDY    67  56  67 N9        30.06S
COTULLA        PTCLDY    65  49  56 N6        30.10S
LAREDO         CLOUDY    66  52  60 N8        30.10R
BROWNSVILLE    CLOUDY    72  60  66 N9        30.04R
PORT ISABEL    CLOUDY    72  59  63 N13       30.03R
HEBBRONVILLE   CLOUDY    64  52  65 N6        30.09S
MCALLEN        CLOUDY    74  55  51 N12       30.06R
WESLACO        MOCLDY    70  56  60 N5        30.04R
FALFURRIAS     CLOUDY    68  53  58 N9        30.07R
EDINBURG       MOCLDY    71  55  56 N8        30.06R
$$




USA.gov is the U.S. government's official web portal to all federal, state and local government web resources and services.